User: anonymous   Login
Location: Ostrava
(49.8330°N, 18.2830°E)
Time: 06:48:16
(UTC+02:00)
Language:

Iridium 7 - Orbit

View from above orbital plane
View from above orbital plane
View from above satellite
View from above satellite

Ground track
Ground track

The orbit data is extracted from the following two-line orbital elements,

1 24793U 97020B   17207.23070421 +.00000061 +00000-0 +14809-4 0  9992
2 24793 086.3982 302.6492 0002291 090.8542 269.2917 14.34221937058567
Epoch (UTC): 26 July 2017 05:32:12
Eccentricity: 0.0002291
inclination: 86.3982°
perigee height: 776 km
apogee height: 779 km
right ascension of ascending node: 302.6492°
argument of perigee: 90.8542°
revolutions per day: 14.34221937
mean anomaly at epoch: 269.2917°
orbit number at epoch: 5856

The dashed part of the orbit path shows where the satellite is in the earth's shadow,  

DLR